Home   Weather   Taiohae   Past weeks

Flag for French Polynesia Past Weather in Taiohae, Marquesas Islands, French Polynesia — Yesterday and Last 2 Weeks

Now
80 °F

Warm.


Feels Like: 84 °F
Forecast: 74 / 84 °F
Wind: No wind

Location: Atuona

Current Time: Jul 25, 2017 at 9:26:57 am

Latest Report: Jul 25, 2017 at 8:30 am


Visibility: N/A

Pressure: 29.93 "Hg

Humidity: 80%

Dew Point: 73 °F

Location of TaiohaeLocation

Past Weather in Taiohae — Graph

°F

Taiohae Temperature Yesterday

Maximum temperature yesterday: 83 °F (at 11:30 am)
Minimum temperature yesterday: 74 °F (at 6:30 am)
Average temperature yesterday: 79 °F

High & Low Weather Summary for the Past Weeks

 TemperatureHumidityPressure
High85 °F (Jul 14, 10:30 am)95% (Jul 17, 6:30 am)30.03 "Hg (Jul 17, 6:30 am)
Low72 °F (Jul 12, 5:30 am)58% (Jul 11, 8:30 am)29.81 "Hg (Jul 23, 3:30 pm)
Average79 °F78%29.92 "Hg
* Reported Jul 10 7:30 am — Jul 25 7:30 am, Taiohae. Weather by CustomWeather, © 2017

Note: Actual official high and low records may vary slightly from our data, if they occured in-between our weather recording intervals... More about our weather records

Advertising

Taiohae Weather History for the Previous 24 Hours

Scroll right to see more
 ConditionsComfort  
Time TempWeatherWind HumidityBarometerVisibility
7:30 am
Tue, Jul 25
75 °FPartly sunny.5 mph92%29.92 "Hg9 mi
6:30 am74 °FPartly sunny.3 mph90%29.90 "Hg19 mi
5:30 am74 °FPassing clouds.3 mph91%29.88 "Hg12 mi
4:30 am74 °FMild.3 mph92%29.87 "HgN/A
3:30 am73 °FMild.2 mph89%29.86 "HgN/A
2:30 am73 °FMild.2 mph87%29.86 "HgN/A
1:30 am74 °FMild.3 mph91%29.87 "HgN/A
12:30 am76 °FMild.2 mph90%29.88 "HgN/A
11:30 pm
Mon, Jul 24
76 °FMild.5 mph87%29.88 "HgN/A
10:30 pm78 °FWarm.5 mph80%29.89 "HgN/A
9:30 pm78 °FWarm.8 mph82%29.88 "HgN/A
8:30 pm76 °FMild.3 mph88%29.88 "HgN/A
7:30 pm78 °FWarm.6 mph81%29.87 "HgN/A
6:30 pm79 °FWarm.5 mph79%29.85 "HgN/A
5:30 pm80 °FWarm.9 mph77%29.84 "HgN/A
4:30 pm80 °FScattered clouds.13 mph75%29.82 "Hg22 mi
3:30 pm80 °FScattered clouds.13 mph76%29.81 "Hg22 mi
2:30 pm82 °FScattered clouds.13 mph69%29.81 "Hg22 mi
1:30 pm83 °FPassing clouds.14 mph66%29.83 "Hg22 mi
12:30 pm82 °FWarm.13 mph68%29.85 "HgN/A
11:30 am83 °FPassing clouds.14 mph69%29.87 "Hg22 mi
10:30 am83 °FPassing clouds.16 mph70%29.89 "Hg22 mi
9:30 am83 °FPassing clouds.17 mph69%29.90 "Hg22 mi
Weather by CustomWeather, © 2017

See weather overviewHow to use our weather pages